Location: Ar Ranvel
(48.3000°N, 4.8833°W)
Time: 15:13:09
(UTC+00:00)

BlueWalker 3 - Pass Details

Date: 09 December 2022
Orbit: 499 x 517 km, 53.2° (Epoch: 01 February)

Event Time Altitude Azimuth Distance (km) Brightness Sun altitude
Rises 17:07:14 0° 294° (WNW) 2,634 6.2 -6.8°
Reaches altitude 10° 17:09:28 10° 299° (WNW) 1,742 5.2 -7.2°
Maximum altitude 17:13:22 59° 19° (NNE) 597 2.1 -7.8°
Drops below altitude 10° 17:17:14 10° 100° (E) 1,724 4.2 -8.3°
Enters shadow 17:18:05 - 102° (ESE) 2,059 4.6 -8.5°
